Theta_e
287 287 287 288 288 287 287 287 287 286 286 286 286 287 287 287 287 288 288 288 288 288 288 288 288 287 287 286 286 286 287 287 288 288 289 290 291 292 293 294 295 296 296 297 298 300 301 303 305 307 307 308
287 287 287 288 288 288 288 287 287 287 286 286 286 287 287 287 287 288 288 288 288 288 288 288 288 288 287 286 286 286 286 287 287 287 288 289 290 291 292 293 293 294 296 297 298 299 300 301 303 306 307 306
287 287 287 287 288 288 288 287 287 287 286 286 287 287 287 287 287 288 288 288 288 288 288 288 288 288 288 287 286 286 286 286 286 286 287 288 289 289 290 292 293 294 295 297 298 299 300 300 302 304 306 306
287 286 286 287 287 288 288 288 288 287 287 287 288 288 287 287 287 287 287 288 288 288 288 288 288 288 288 287 287 286 286 286 286 286 286 287 288 288 288 290 292 294 295 297 298 298 299 300 301 302 305 306
288 287 286 286 287 287 287 288 288 287 287 288 288 288 288 287 287 287 287 287 287 287 287 288 288 288 288 287 287 286 286 286 286 285 286 286 287 288 288 288 290 293 295 296 297 298 299 300 301 301 303 305
289 288 286 286 286 287 287 288 288 288 288 288 288 288 287 287 286 287 286 286 286 287 286 287 287 287 287 287 287 286 285 285 285 285 285 285 286 286 287 287 288 290 293 295 296 297 299 300 300 301 302 303
289 289 287 286 286 286 287 288 288 288 288 288 288 288 287 287 287 287 286 286 286 286 286 286 287 287 287 287 287 287 285 285 285 285 285 285 285 285 286 286 286 288 290 293 295 296 297 299 300 301 302 302
290 289 288 287 286 285 286 287 287 287 287 288 288 288 287 287 287 287 287 286 286 286 285 285 285 286 286 286 287 286 286 285 285 285 285 284 284 284 284 285 285 286 288 291 293 294 295 297 298 300 301 302
290 290 289 287 286 285 285 286 286 286 287 287 288 287 287 287 287 287 287 286 286 285 285 285 285 285 285 285 285 285 285 284 284 284 284 284 284 283 284 284 284 285 286 288 291 292 294 295 296 298 300 301
291 290 289 288 287 285 285 285 286 286 287 287 287 287 287 287 287 287 287 286 286 286 285 284 284 284 284 284 284 284 283 284 284 283 283 283 283 283 283 283 283 283 284 286 288 291 292 293 295 296 298 300
291 290 289 288 287 286 285 285 285 286 286 286 287 287 287 286 286 286 286 287 286 286 286 285 284 283 283 283 283 283 282 283 283 283 283 283 283 282 282 282 283 283 283 284 286 289 290 292 293 295 296 298
291 290 290 289 288 287 285 285 285 285 286 286 286 286 286 286 286 286 286 286 286 286 286 285 284 283 282 282 282 282 282 282 282 282 282 282 282 282 282 282 282 282 282 283 284 286 288 290 292 293 294 296
291 290 290 289 288 287 286 285 284 285 285 285 286 286 286 286 286 286 286 286 286 286 286 285 284 283 282 281 281 281 281 281 281 281 281 282 282 282 282 281 281 282 282 282 283 284 286 288 290 291 293 294
291 290 290 289 288 288 286 285 284 284 285 285 285 285 286 286 286 286 286 286 285 285 285 285 284 282 281 281 281 281 281 281 281 281 281 281 282 281 281 281 281 281 282 282 282 283 284 286 288 290 291 293
291 291 290 289 289 288 287 285 284 284 284 285 285 285 285 285 285 285 285 285 285 285 285 284 283 282 281 280 280 280 280 280 280 280 280 281 281 281 281 281 281 281 281 281 282 282 283 284 286 288 290 291
291 291 290 289 289 288 287 285 284 284 284 284 284 285 285 285 285 285 285 285 285 284 284 284 283 282 281 280 280 280 280 280 280 280 280 280 281 281 281 281 281 281 281 281 281 282 282 283 284 286 288 290
291 291 290 290 289 288 287 285 284 284 284 284 284 284 285 285 285 285 284 284 284 284 283 283 282 282 281 280 280 280 280 280 279 279 280 280 280 280 280 280 280 280 281 281 281 281 281 282 283 284 286 288
291 291 290 290 289 289 287 286 284 284 284 284 284 284 284 285 285 284 284 284 284 283 283 282 281 281 280 280 280 280 279 279 279 279 279 279 280 280 280 280 280 280 280 281 281 281 281 282 282 283 284 286
291 291 290 290 290 289 288 286 285 284 283 284 284 284 284 284 285 284 284 284 283 283 282 281 281 280 279 279 279 279 279 279 279 279 279 279 279 279 280 280 279 280 280 280 281 281 282 282 282 283 284 285
291 291 290 290 290 289 288 287 285 284 283 283 284 284 284 284 284 284 283 283 283 283 282 281 280 280 279 279 279 279 278 278 278 278 278 279 279 279 279 279 279 279 280 280 280 281 282 282 282 283 284 284
291 291 290 290 290 289 288 287 285 284 283 283 283 283 283 284 284 283 283 283 283 282 282 281 280 280 279 280 279 279 278 278 278 278 278 278 278 278 279 279 279 279 279 279 280 280 281 282 282 283 284 284
291 291 290 290 290 289 288 287 286 284 283 283 283 283 283 283 283 283 283 283 282 282 282 281 280 280 279 279 279 279 278 278 277 277 277 277 278 278 278 278 279 279 279 279 279 280 281 281 282 283 283 284
291 291 291 290 290 289 289 287 286 285 283 283 283 283 283 283 283 283 282 282 282 282 281 281 280 280 279 279 279 278 278 277 277 276 276 277 277 278 278 278 278 278 279 278 279 279 280 281 282 282 283 284
292 291 291 290 290 289 289 287 287 286 284 283 283 283 283 282 282 282 282 282 282 281 281 280 280 279 279 279 278 278 278 277 277 276 276 277 277 278 278 278 278 278 278 278 279 279 280 281 281 282 283 283
292 292 291 290 290 289 288 288 287 286 285 283 283 283 283 282 282 282 282 281 281 281 281 280 280 279 279 279 278 278 278 277 277 277 277 277 277 278 278 278 278 278 278 278 278 279 280 281 281 282 283 283
293 292 291 290 289 289 288 288 287 286 285 283 282 283 282 282 282 282 282 281 281 281 281 280 280 279 279 279 278 278 278 278 278 277 277 277 278 278 278 278 278 278 278 278 278 278 280 281 281 282 282 283
293 292 291 290 289 288 288 288 287 287 285 283 282 282 282 282 282 282 282 281 281 281 281 280 280 279 279 279 279 278 278 278 278 278 277 278 278 278 278 278 278 279 278 277 278 278 279 281 281 281 282 281
293 292 291 290 289 288 288 288 287 287 286 284 283 282 282 282 282 282 281 281 280 280 280 280 280 280 279 279 279 278 278 278 278 278 278 278 278 279 279 278 278 279 279 278 278 278 279 280 280 281 282 281
293 292 291 290 289 288 288 288 287 287 286 285 283 282 283 282 282 282 281 281 280 280 280 280 280 280 279 279 279 279 279 278 278 278 278 278 278 279 279 279 279 279 279 278 278 278 278 280 280 281 281 280
293 292 291 290 289 289 288 288 288 287 286 285 282 282 282 282 282 281 281 281 280 280 280 280 280 280 279 279 279 279 279 279 279 279 279 279 279 279 279 279 279 279 278 278 278 278 277 279 279 279 278 278
292 292 291 290 290 289 289 288 287 287 286 284 282 282 282 282 281 281 281 281 280 280 279 279 279 279 279 279 279 279 279 279 279 279 279 279 279 278 279 279 279 279 278 277 277 277 277 277 277 277 276 277
Wind_Speed
22 21 21 21 21 22 22 21 20 20 21 21 23 24 25 26 27 27 27 28 29 30 32 33 33 32 31 30 30 32 34 34 33 30 29 31 30 30 33 37 42 44 43 43 43 45 46 45 40 35 31 26
25 23 22 22 23 23 23 22 21 21 21 21 23 24 25 26 26 27 28 29 29 30 32 33 33 33 32 30 29 30 32 33 32 31 28 29 30 30 33 36 39 40 38 39 41 42 44 45 43 38 33 30
29 26 25 25 24 25 24 23 22 22 22 22 23 25 25 26 27 28 29 29 30 31 32 32 32 32 32 31 29 29 31 32 31 31 30 29 30 32 33 35 36 36 35 35 37 40 41 43 44 40 36 34
32 30 28 27 26 26 25 24 23 23 23 24 25 25 26 26 27 28 29 30 30 31 32 32 32 31 31 31 30 28 30 31 29 29 30 29 30 33 34 33 33 33 33 34 35 37 40 41 42 42 40 36
34 33 32 29 28 27 26 25 24 23 23 25 26 26 26 26 27 28 29 30 31 31 32 32 31 30 30 30 29 28 28 29 27 27 29 29 29 32 34 33 32 32 32 33 33 34 37 39 40 41 42 40
34 35 35 33 30 28 27 26 25 24 25 26 26 27 26 27 28 29 29 30 31 31 31 32 31 30 29 29 29 28 28 27 26 26 28 29 29 30 33 34 32 32 32 32 33 33 33 35 37 38 42 43
34 35 36 36 33 31 30 28 28 27 27 27 27 27 28 28 29 30 30 31 31 31 31 32 32 30 29 30 30 29 28 26 25 25 26 28 29 29 31 33 32 31 32 32 33 33 32 32 34 36 39 44
34 35 36 37 36 34 32 30 30 30 29 29 29 28 28 29 30 31 31 32 32 32 31 31 32 31 30 30 31 31 29 27 26 25 25 27 29 29 29 31 31 30 30 31 32 33 32 31 32 33 36 42
34 34 35 36 37 36 33 32 31 31 31 30 29 28 28 28 30 31 32 33 32 31 30 30 30 30 29 29 30 31 30 28 26 25 25 26 28 29 29 29 30 29 28 29 31 32 32 31 31 32 33 38
34 34 35 35 37 37 35 33 32 32 31 31 30 29 28 28 29 31 32 33 33 32 30 29 28 28 28 28 29 28 28 29 27 24 24 26 28 29 28 28 29 28 27 28 29 30 31 31 31 31 31 34
34 34 35 35 36 37 36 35 33 33 32 32 30 29 28 28 29 30 31 32 32 32 31 29 27 27 27 27 27 26 26 29 29 25 24 26 28 29 29 27 28 28 26 26 27 28 29 30 30 30 30 32
34 34 35 35 36 38 38 36 35 34 33 33 31 29 28 28 29 30 31 32 32 31 31 29 28 27 26 26 25 26 26 26 28 26 24 25 27 30 30 28 27 27 27 25 26 27 28 29 30 30 30 31
35 35 35 35 36 37 38 37 36 35 34 34 32 30 29 28 29 30 31 31 31 31 31 29 28 27 25 26 25 25 25 25 26 26 25 25 26 29 31 30 27 26 27 25 25 26 27 28 29 29 30 30
36 35 35 36 37 37 38 38 37 36 35 34 33 30 29 28 29 29 30 31 30 29 30 30 29 27 25 26 26 25 25 25 25 25 25 25 26 29 30 31 29 26 27 26 25 26 27 28 28 29 30 30
36 36 36 36 38 38 39 38 37 36 35 35 33 31 29 28 28 28 29 30 30 29 29 29 28 27 26 26 26 26 26 25 26 26 26 26 26 29 31 31 32 29 27 27 26 26 27 27 28 29 29 30
37 37 36 37 38 39 39 38 37 37 36 36 34 32 30 29 28 28 28 29 30 28 28 28 28 28 27 26 26 27 28 27 26 26 27 28 27 29 31 32 33 31 29 28 27 26 27 27 28 30 30 30
39 38 37 37 38 39 39 38 37 37 37 36 35 32 31 30 29 27 27 28 29 28 27 27 28 28 27 28 27 27 28 28 27 26 26 28 29 30 32 33 34 34 32 30 29 28 27 27 28 29 30 30
40 39 38 38 39 40 39 38 38 38 37 37 35 33 31 30 29 27 27 28 28 27 26 26 26 27 27 28 29 29 29 29 27 26 26 27 28 30 32 34 34 35 35 32 31 30 28 28 28 28 30 30
40 40 39 39 40 40 40 39 38 38 37 37 36 34 32 30 29 28 27 27 27 26 25 25 25 26 27 28 29 29 29 30 29 27 27 27 28 31 33 34 34 36 37 35 33 31 29 28 27 27 28 29
42 41 40 40 40 40 40 39 39 38 37 36 36 34 32 30 29 28 27 27 26 25 25 24 24 25 27 28 29 29 30 31 30 27 28 30 28 30 33 34 35 36 37 37 35 33 30 28 26 26 26 27
43 42 41 41 41 40 40 40 39 38 38 37 36 35 33 31 29 28 27 26 25 25 24 23 23 24 26 28 28 28 29 30 29 27 29 31 29 29 32 34 35 35 36 38 37 33 30 28 25 23 22 23
44 43 42 42 41 40 40 40 39 38 38 37 36 35 34 31 29 28 27 26 24 23 23 23 23 24 25 26 26 26 28 29 29 28 29 31 30 29 31 33 34 35 36 38 36 31 28 26 23 21 19 20
45 44 43 43 41 40 40 39 39 39 38 37 36 35 34 32 29 27 27 26 24 22 21 21 22 23 23 24 24 25 26 27 26 27 28 29 29 28 29 30 32 34 34 34 32 27 25 24 20 17 16 17
45 45 44 43 41 41 40 39 39 39 39 37 36 35 34 32 30 28 27 26 24 22 20 20 21 21 22 22 23 23 24 24 23 24 26 26 25 23 24 25 27 29 28 28 28 26 25 21 15 12 12 14
45 44 44 43 41 40 39 40 40 39 40 39 37 35 34 32 31 29 27 25 24 22 20 19 20 20 20 20 20 21 20 21 21 20 21 20 19 18 19 19 20 23 24 23 23 23 23 19 11 8 9 11
43 44 44 43 41 40 40 40 39 39 39 39 37 36 34 32 31 30 28 26 24 23 21 19 19 19 19 18 18 18 17 17 16 15 15 15 13 13 15 15 16 19 19 17 18 21 21 18 12 7 7 8
42 43 43 43 41 42 41 40 40 39 39 39 37 35 35 33 31 30 28 26 25 24 22 20 19 18 18 17 16 15 15 14 13 12 12 11 11 10 12 14 15 17 17 16 16 17 14 13 11 6 7 8
40 42 44 43 43 43 43 41 40 40 39 39 36 35 34 33 30 29 28 27 26 25 23 21 19 19 18 17 16 14 13 13 12 11 11 11 10 10 11 12 13 16 17 16 14 11 10 10 8 5 8 12
40 42 43 44 44 45 44 42 41 40 39 39 36 35 35 33 31 29 28 28 26 25 24 22 20 19 19 18 17 15 14 14 13 12 12 12 11 10 11 11 12 14 16 16 13 10 8 7 6 6 12 16
41 42 43 45 46 46 45 44 42 40 39 37 36 36 35 34 32 29 28 28 27 26 25 23 22 20 20 19 18 17 16 15 15 14 14 13 12 12 12 12 13 12 13 16 16 14 9 6 7 11 14 14
44 43 44 45 46 47 46 45 43 41 39 37 36 36 36 34 32 29 28 28 28 27 26 25 23 22 21 20 20 19 18 17 16 16 16 15 14 13 13 13 13 12 12 13 15 16 13 10 10 13 13 10
Wind_Direction
339 334 330 328 327 324 321 318 315 312 310 310 312 314 315 315 317 320 321 321 322 321 319 319 319 320 321 319 317 314 311 311 312 312 307 305 304 303 300 296 294 293 295 294 292 291 289 288 290 297 305 310
345 339 335 332 330 328 323 319 315 311 309 310 312 313 314 316 318 320 321 322 321 321 318 318 318 318 320 320 318 315 311 312 313 310 305 301 300 299 298 297 296 295 294 291 289 288 287 286 286 289 296 306
349 345 339 335 333 331 326 321 315 311 310 310 311 312 314 316 318 321 321 322 321 320 318 317 317 317 319 319 319 316 311 313 314 310 305 300 298 297 295 295 296 295 291 287 285 284 284 284 283 284 287 295
350 348 343 338 334 332 329 322 316 312 310 311 311 312 314 318 320 323 323 323 322 320 318 317 317 318 319 319 319 317 312 313 313 307 304 300 296 294 294 294 293 291 288 284 282 281 281 282 281 281 280 285
348 349 346 340 335 333 330 324 319 314 312 312 312 313 317 320 322 324 325 324 323 322 320 318 318 319 320 319 319 318 315 314 311 305 302 299 294 292 293 294 291 288 286 282 280 278 277 278 278 278 277 278
344 347 347 343 337 333 330 327 323 319 317 316 315 317 320 323 324 324 324 323 321 321 320 319 319 320 320 319 319 319 318 315 310 304 299 297 295 292 292 295 294 289 285 281 280 277 275 274 274 274 274 274
339 342 344 344 339 334 331 330 328 324 322 320 319 321 323 323 323 323 323 322 321 321 321 320 320 320 320 319 319 318 319 317 312 305 298 295 296 294 292 294 295 292 287 282 280 279 275 273 272 271 270 271
335 338 340 342 340 335 331 330 329 327 324 321 320 321 322 322 321 321 321 321 322 322 322 320 320 321 321 320 319 318 318 318 316 310 300 294 295 296 294 294 295 294 290 285 281 280 277 274 271 270 267 267
331 333 336 338 339 336 331 329 328 327 324 321 319 319 320 320 319 320 320 320 320 321 321 319 319 319 319 319 317 317 318 318 318 315 306 297 296 299 298 297 298 296 292 287 282 280 278 275 272 269 267 264
327 329 331 334 336 336 332 328 327 326 324 320 317 317 318 318 318 317 317 318 318 319 319 319 318 316 315 315 314 315 315 315 317 318 311 304 300 301 302 300 300 301 297 291 285 280 278 276 273 270 268 264
323 325 327 329 332 334 332 327 325 324 324 321 316 315 315 316 316 315 315 315 317 317 317 317 315 313 312 311 310 310 311 312 314 317 314 307 303 302 303 303 300 301 301 296 289 283 279 276 275 272 269 265
319 322 324 325 328 331 331 327 324 323 323 321 317 313 312 314 314 313 313 313 315 315 315 315 313 312 311 308 307 307 308 310 311 313 314 309 305 304 304 305 302 301 301 300 295 287 281 277 275 274 271 268
315 318 320 321 324 327 329 327 324 322 323 322 318 313 310 311 311 311 311 311 313 313 312 312 311 311 309 306 305 304 305 306 307 309 312 310 306 304 305 306 305 302 301 300 299 293 285 280 276 274 272 269
312 314 316 318 320 323 326 326 324 322 322 322 319 313 309 309 309 309 309 309 310 310 310 309 309 309 306 304 303 302 302 302 304 304 306 308 306 304 304 306 306 304 302 300 300 297 291 284 279 275 272 270
309 311 313 315 316 319 323 324 323 321 320 321 318 312 308 308 308 308 307 307 308 307 307 306 305 304 302 301 300 299 300 298 300 301 302 304 305 304 303 304 306 306 304 302 301 299 295 289 283 279 275 271
305 307 309 311 314 316 319 322 322 320 319 319 318 313 309 309 308 307 307 305 305 305 304 302 301 300 299 298 296 295 297 297 298 299 299 301 304 304 303 303 305 305 304 302 302 300 297 293 286 281 278 273
302 304 306 308 311 312 316 320 321 320 318 317 317 313 309 308 308 307 305 303 303 303 300 299 298 297 296 295 293 292 294 295 295 295 295 298 301 302 302 302 303 304 304 302 302 301 299 296 288 283 280 276
300 301 303 306 308 310 313 317 319 319 317 316 316 313 310 307 307 306 303 301 301 300 298 296 294 293 293 291 290 291 291 291 290 290 291 293 296 298 299 300 301 302 304 303 302 302 300 297 292 285 281 279
297 299 301 303 305 307 310 314 317 317 316 315 315 313 310 307 306 304 301 299 298 298 295 293 291 289 288 286 287 289 287 286 287 287 287 289 291 294 296 297 298 301 303 304 303 302 301 298 294 288 283 281
294 296 298 300 301 303 307 311 314 316 315 314 313 312 310 306 304 302 299 298 296 296 294 291 289 286 284 285 287 286 284 283 285 284 283 285 288 290 292 293 296 300 302 304 304 303 301 298 294 288 285 284
292 294 295 295 298 301 304 308 311 313 313 312 312 311 309 306 303 300 297 296 295 294 293 291 289 286 284 286 289 286 283 283 282 281 281 284 286 286 289 292 295 298 301 302 304 304 302 299 296 289 284 282
289 290 292 292 295 298 301 304 308 311 311 311 310 309 309 306 302 299 296 294 292 291 292 291 289 288 288 289 290 288 285 283 281 281 281 283 285 284 286 290 293 296 299 301 303 306 304 302 301 294 285 277
286 287 288 289 292 295 298 301 305 308 310 309 309 308 308 305 301 297 293 291 289 288 289 290 290 290 291 292 291 288 286 285 284 283 283 286 288 287 286 288 292 296 299 302 305 310 310 310 309 299 286 274
284 285 286 287 289 292 295 298 302 306 308 308 307 306 306 304 300 296 292 289 287 287 287 288 290 291 293 294 292 290 288 287 285 284 285 289 291 291 290 291 295 297 300 305 310 316 319 320 317 301 284 271
283 283 283 284 286 288 291 294 299 304 306 307 306 305 305 303 299 295 291 288 286 286 286 287 289 291 294 295 293 291 289 288 288 289 290 291 293 295 296 297 295 295 302 309 313 320 326 328 323 302 283 270
282 282 281 282 283 285 287 290 295 300 303 304 305 304 303 302 299 294 290 287 284 283 283 284 286 288 291 293 292 292 290 290 292 293 293 294 297 299 299 300 296 297 306 310 312 322 328 331 334 311 279 268
283 282 280 280 280 281 283 287 291 296 299 301 302 302 300 300 298 294 289 285 282 280 279 280 282 284 287 289 290 289 289 291 293 294 293 294 297 297 296 299 299 301 307 309 315 326 325 325 334 315 275 267
284 280 279 277 276 277 280 283 287 291 296 299 300 299 297 298 298 293 287 284 280 277 276 276 278 280 282 284 285 284 284 286 287 289 288 289 290 291 293 294 296 299 304 309 315 323 318 312 322 312 292 296
283 279 277 275 274 275 277 280 283 287 293 297 299 298 296 296 297 294 287 282 278 275 273 273 274 276 278 279 280 280 281 281 283 284 284 285 285 286 288 289 292 297 302 306 305 306 313 313 315 306 308 316
282 279 276 274 273 274 276 278 281 285 290 294 296 296 295 294 296 294 287 281 276 273 270 271 271 272 274 275 276 276 278 279 280 282 283 283 283 283 286 289 294 297 299 301 302 303 301 284 283 291 306 320
280 278 276 274 274 274 274 276 279 283 287 290 292 293 293 293 293 293 288 280 275 271 269 268 269 269 270 271 272 273 275 277 278 280 281 282 282 282 284 288 293 297 297 295 297 301 298 286 280 285 297 310